Location: Cormont
(50.5693°N, 1.7416°E)
Time: 07:43:52
(UTC+00:00)

Cosmos 2058 - Pass Details

Date: 21 October 2019
Orbit: 562 x 584 km, 82.5° (Epoch: 19 November)

Event Time Altitude Azimuth Distance (km) Brightness Sun altitude
Rises 17:27:01 0° 2° (N) 2,824 6.3 -6.6°
Reaches altitude 10° 17:29:55 10° 23° (NNE) 1,917 5.3 -7.1°
Maximum altitude 17:32:42 17° 64° (ENE) 1,512 4.5 -7.5°
Drops below altitude 10° 17:35:28 10° 106° (ESE) 1,904 5.0 -8.0°
Enters shadow 17:36:42 - 117° (ESE) 2,256 5.4 -8.1°
